TimeCST,TemperatureF,Dew PointF,Humidity,Sea Level PressureIn,VisibilityMPH,Wind Direction,Wind SpeedMPH,Gust SpeedMPH,PrecipitationIn,Events,Conditions,WindDirDegrees,DateUTC
12:15 AM,71.6,64.6,78,29.71,10.0,South,16.1,19.6,N/A,,Clear,170,2012-12-25 06:15:00
12:35 AM,71.6,64.6,78,29.69,10.0,South,11.5,19.6,N/A,,Clear,170,2012-12-25 06:35:00
12:55 AM,71.8,64.4,77,29.69,10.0,South,13.8,20.7,N/A,,Clear,170,2012-12-25 06:55:00
1:15 AM,71.6,64.2,77,29.68,10.0,South,16.1,23.0,N/A,,Clear,170,2012-12-25 07:15:00
1:35 AM,71.4,64.0,77,29.68,10.0,South,12.7,24.2,N/A,,Clear,170,2012-12-25 07:35:00
1:55 AM,71.1,63.7,77,29.67,10.0,South,13.8,20.7,N/A,,Clear,170,2012-12-25 07:55:00
2:15 AM,70.9,63.5,77,29.66,10.0,South,15.0,20.7,N/A,,Clear,170,2012-12-25 08:15:00
2:35 AM,70.7,63.3,77,29.67,10.0,South,11.5,-,N/A,,Clear,180,2012-12-25 08:35:00
2:55 AM,70.3,63.5,79,29.66,10.0,South,11.5,16.1,N/A,,Clear,170,2012-12-25 08:55:00
3:15 AM,70.2,63.1,78,29.66,10.0,South,12.7,-,N/A,,Clear,190,2012-12-25 09:15:00
3:35 AM,70.0,63.0,78,29.65,10.0,South,13.8,-,N/A,,Clear,170,2012-12-25 09:35:00
3:55 AM,69.8,62.8,78,29.65,10.0,South,10.4,18.4,N/A,,Clear,170,2012-12-25 09:55:00
4:15 AM,69.4,62.8,79,29.65,10.0,SSE,11.5,-,N/A,,Clear,160,2012-12-25 10:15:00
4:35 AM,69.8,62.8,78,29.64,10.0,South,13.8,20.7,N/A,,Clear,170,2012-12-25 10:35:00
4:55 AM,69.8,63.1,79,29.64,10.0,South,15.0,20.7,N/A,,Clear,170,2012-12-25 10:55:00
5:15 AM,69.8,63.5,80,29.64,10.0,South,12.7,23.0,N/A,,Clear,170,2012-12-25 11:15:00
5:35 AM,69.8,63.5,80,29.64,10.0,South,15.0,24.2,N/A,,Clear,180,2012-12-25 11:35:00
5:55 AM,70.0,63.7,80,29.63,10.0,South,16.1,23.0,N/A,,Clear,180,2012-12-25 11:55:00
6:15 AM,69.4,63.7,82,29.63,10.0,South,12.7,23.0,N/A,,Clear,180,2012-12-25 12:15:00
6:35 AM,69.1,63.7,83,29.63,10.0,South,12.7,20.7,N/A,,Clear,180,2012-12-25 12:35:00
6:55 AM,68.7,63.7,84,29.63,10.0,South,17.3,21.9,N/A,,Clear,180,2012-12-25 12:55:00
7:15 AM,68.9,63.7,83,29.65,10.0,South,12.7,-,N/A,,Clear,190,2012-12-25 13:15:00
7:35 AM,68.5,63.7,84,29.65,10.0,South,11.5,18.4,N/A,,Clear,190,2012-12-25 13:35:00
7:55 AM,68.4,63.7,85,29.66,10.0,South,11.5,17.3,N/A,,Clear,190,2012-12-25 13:55:00
8:15 AM,69.1,63.9,83,29.66,10.0,South,12.7,16.1,N/A,,Clear,190,2012-12-25 14:15:00
8:35 AM,70.2,63.9,80,29.67,10.0,South,15.0,19.6,N/A,,Clear,190,2012-12-25 14:35:00
8:55 AM,71.4,63.5,76,29.68,10.0,South,15.0,19.6,N/A,,Clear,190,2012-12-25 14:55:00
9:15 AM,73.2,63.5,71,29.70,10.0,South,11.5,17.3,N/A,,Clear,190,2012-12-25 15:15:00
9:35 AM,73.9,62.6,68,29.71,10.0,SSW,11.5,19.6,N/A,,Clear,200,2012-12-25 15:35:00
9:55 AM,74.7,62.6,66,29.73,10.0,SSW,11.5,17.3,N/A,,Clear,200,2012-12-25 15:55:00
10:15 AM,76.8,62.2,61,29.73,10.0,SSW,9.2,-,N/A,,Clear,200,2012-12-25 16:15:00
10:35 AM,78.3,61.7,57,29.73,10.0,SW,8.1,-,N/A,,Clear,220,2012-12-25 16:35:00
10:55 AM,79.0,61.2,54,29.73,10.0,SW,5.8,-,N/A,,Clear,230,2012-12-25 16:55:00
11:15 AM,81.1,60.4,49,29.73,10.0,WSW,5.8,-,N/A,,Clear,240,2012-12-25 17:15:00
11:35 AM,82.0,59.5,46,29.73,10.0,SW,6.9,-,N/A,,Clear,230,2012-12-25 17:35:00
11:55 AM,82.9,59.5,45,29.72,10.0,West,5.8,-,N/A,,Clear,260,2012-12-25 17:55:00
12:15 PM,84.9,55.8,37,29.72,7.0,NW,12.7,18.4,N/A,,Clear,310,2012-12-25 18:15:00
12:35 PM,84.2,54.5,36,29.72,7.0,NNW,15.0,26.5,N/A,,Clear,340,2012-12-25 18:35:00
12:55 PM,86.0,51.6,31,29.71,7.0,NNW,17.3,21.9,N/A,,Clear,340,2012-12-25 18:55:00
1:15 PM,85.3,50.0,29,29.71,10.0,North,18.4,25.3,N/A,,Clear,350,2012-12-25 19:15:00
1:35 PM,83.8,44.8,25,29.72,7.0,North,16.1,27.6,N/A,,Clear,350,2012-12-25 19:35:00
2:15 PM,83.1,35.1,18,29.72,10.0,North,15.0,25.3,N/A,,Clear,360,2012-12-25 20:15:00
2:35 PM,83.3,33.6,17,29.72,10.0,North,17.3,27.6,N/A,,Clear,360,2012-12-25 20:35:00
2:55 PM,81.9,33.3,17,29.73,10.0,North,17.3,25.3,N/A,,Clear,350,2012-12-25 20:55:00
3:15 PM,81.9,34.7,18,29.73,10.0,North,13.8,20.7,N/A,,Clear,10,2012-12-25 21:15:00
3:35 PM,82.2,30.9,16,29.73,10.0,North,12.7,19.6,N/A,,Clear,360,2012-12-25 21:35:00
3:55 PM,81.9,28.0,14,29.74,10.0,North,15.0,19.6,N/A,,Clear,360,2012-12-25 21:55:00
4:15 PM,81.1,26.6,14,29.74,10.0,North,13.8,19.6,N/A,,Clear,360,2012-12-25 22:15:00
4:35 PM,80.6,24.6,13,29.75,10.0,North,15.0,21.9,N/A,,Clear,350,2012-12-25 22:35:00
4:55 PM,79.7,24.6,13,29.77,10.0,North,12.7,20.7,N/A,,Clear,360,2012-12-25 22:55:00
5:15 PM,77.9,24.3,14,29.78,10.0,North,12.7,19.6,N/A,,Clear,360,2012-12-25 23:15:00
5:35 PM,75.9,23.9,14,29.79,10.0,North,9.2,-,N/A,,Clear,10,2012-12-25 23:35:00
5:55 PM,74.3,22.6,14,29.80,10.0,North,9.2,16.1,N/A,,Clear,360,2012-12-25 23:55:00
6:15 PM,73.2,22.5,15,29.83,10.0,North,11.5,17.3,N/A,,Clear,360,2012-12-26 00:15:00
6:35 PM,72.0,22.1,15,29.85,10.0,North,10.4,-,N/A,,Clear,350,2012-12-26 00:35:00
6:55 PM,71.1,21.9,16,29.86,10.0,North,8.1,-,N/A,,Clear,350,2012-12-26 00:55:00
7:15 PM,70.2,22.3,16,29.88,10.0,North,6.9,-,N/A,,Clear,350,2012-12-26 01:15:00
7:35 PM,67.8,23.7,19,29.89,10.0,North,8.1,-,N/A,,Clear,350,2012-12-26 01:35:00
7:55 PM,64.6,25.2,22,29.92,10.0,North,5.8,-,N/A,,Clear,360,2012-12-26 01:55:00
8:15 PM,68.2,22.1,17,29.94,10.0,North,15.0,-,N/A,,Clear,360,2012-12-26 02:15:00
8:35 PM,67.5,22.5,18,29.95,10.0,North,13.8,20.7,N/A,,Clear,350,2012-12-26 02:35:00
8:55 PM,66.2,22.1,19,29.97,10.0,North,8.1,-,N/A,,Clear,360,2012-12-26 02:55:00
9:15 PM,64.4,22.8,21,29.98,10.0,NNW,12.7,17.3,N/A,,Clear,340,2012-12-26 03:15:00
10:15 PM,62.6,21.7,21,30.04,10.0,North,11.5,-,N/A,,Clear,350,2012-12-26 04:15:00
10:35 PM,61.3,22.1,22,30.05,10.0,North,12.7,19.6,N/A,,Clear,350,2012-12-26 04:35:00
10:55 PM,60.4,22.5,23,30.07,10.0,North,9.2,17.3,N/A,,Clear,360,2012-12-26 04:55:00
11:15 PM,59.2,23.0,25,30.09,10.0,North,10.4,20.7,N/A,,Clear,360,2012-12-26 05:15:00
11:35 PM,57.2,23.9,28,30.10,10.0,North,15.0,19.6,N/A,,Clear,360,2012-12-26 05:35:00
11:55 PM,54.1,25.3,33,30.12,10.0,NNE,11.5,20.7,N/A,,Clear,20,2012-12-26 05:55:00